STARLINK-11201 [DTC] (60113 NORAD) Tracking and Keplerian Element Data

This shows tracking and keplerian element data for the satellite.

Feedback or suggestion? Click here.




ElementValue
Catalog60113
NameSTARLINK-11201 [DTC]
Epoch Orbit1735
Epoch Day286.28957255
Epoch Year2024
RAAN232.4604
Inclination53.1556
Eccentricity0.0001167
Argument of Perigee91.727
Mean Anonmoly268.3882
Mean Motion15.69650535
Decay Rate0.00128745
L11 60113U 24118A 24286.28957255 .00128745 00000+0 10537-2 0 9996
L22 60113 53.1556 232.4604 0001167 91.7270 268.3882 15.69650535 17358



Live tracking and technical data element details for STARLINK-11201 [DTC] (NORAD 60113). STARLINK-11201 [DTC] can be tracked NOW for your location showing map with azimuth and elevation plus other details from your city location.







IsCatalogInMostPopularTable: catalog: 60113, numindb: 9
Update: records affected: 1



GetName: 60113 STARLINK-11201 [DTC]

Hit Count: updated at: Thu, 23 Jan 2025 14:43:43 GMT